TimeCST,TemperatureF,Dew PointF,Humidity,Sea Level PressureIn,VisibilityMPH,Wind Direction,Wind SpeedMPH,Gust SpeedMPH,PrecipitationIn,Events,Conditions,WindDirDegrees,DateUTC
12:08 AM,69.8,66.2,88,29.98,9.0,ESE,6.9,-,N/A,,Overcast,120,2011-11-26 06:08:00
12:53 AM,68.0,64.9,90,29.97,7.0,Calm,Calm,-,N/A,,Overcast,0,2011-11-26 06:53:00
1:22 AM,66.2,64.4,94,29.96,5.0,East,4.6,-,N/A,,Scattered Clouds,100,2011-11-26 07:22:00
1:53 AM,66.0,64.0,93,29.96,5.0,East,4.6,-,N/A,,Partly Cloudy,100,2011-11-26 07:53:00
2:53 AM,68.0,66.0,93,29.95,7.0,Calm,Calm,-,N/A,,Mostly Cloudy,0,2011-11-26 08:53:00
3:53 AM,64.9,63.0,93,29.94,7.0,ESE,5.8,-,N/A,,Clear,120,2011-11-26 09:53:00
4:53 AM,68.0,66.0,93,29.93,10.0,SSE,8.1,-,N/A,,Clear,160,2011-11-26 10:53:00
5:53 AM,66.9,64.0,90,29.92,8.0,SE,8.1,-,N/A,,Clear,130,2011-11-26 11:53:00
6:53 AM,71.1,66.9,87,29.93,9.0,SSE,9.2,-,N/A,,Partly Cloudy,150,2011-11-26 12:53:00
7:53 AM,73.4,69.8,88,29.94,10.0,SSE,8.1,-,N/A,,Clear,150,2011-11-26 13:53:00
8:53 AM,75.9,70.0,82,29.94,10.0,SSE,12.7,21.9,N/A,,Mostly Cloudy,150,2011-11-26 14:53:00
9:50 AM,77.0,69.8,78,29.95,10.0,South,13.8,20.7,N/A,,Mostly Cloudy,170,2011-11-26 15:50:00
9:53 AM,77.0,70.0,79,29.95,10.0,South,12.7,-,N/A,,Mostly Cloudy,180,2011-11-26 15:53:00
10:31 AM,80.6,69.8,70,29.94,10.0,SSE,15.0,-,N/A,,Scattered Clouds,160,2011-11-26 16:31:00
10:53 AM,80.1,70.0,71,29.93,10.0,SSE,13.8,23.0,N/A,,Partly Cloudy,160,2011-11-26 16:53:00
11:53 AM,80.1,70.0,71,29.89,10.0,South,17.3,24.2,N/A,,Partly Cloudy,180,2011-11-26 17:53:00
12:53 PM,78.1,70.0,76,29.86,10.0,South,11.5,-,N/A,,Overcast,170,2011-11-26 18:53:00
1:48 PM,77.0,71.6,83,29.86,10.0,South,13.8,21.9,N/A,,Overcast,180,2011-11-26 19:48:00
1:53 PM,75.9,71.1,85,29.86,10.0,South,18.4,27.6,N/A,,Overcast,190,2011-11-26 19:53:00
2:38 PM,62.6,59.0,88,29.89,2.5,NW,16.1,32.2,0.04,Rain,Heavy Rain,320,2011-11-26 20:38:00
2:51 PM,62.6,59.0,88,29.90,2.5,NW,18.4,25.3,0.08,Rain,Heavy Rain,320,2011-11-26 20:51:00
2:53 PM,62.1,59.0,90,29.90,2.0,NW,19.6,25.3,0.11,Rain,Heavy Rain,320,2011-11-26 20:53:00
3:27 PM,62.6,59.0,88,29.91,2.0,NNW,10.4,-,0.11,Rain,Light Rain,330,2011-11-26 21:27:00
3:53 PM,62.1,59.0,90,29.92,6.0,NNW,12.7,-,0.12,Rain,Light Rain,340,2011-11-26 21:53:00
4:00 PM,62.6,59.0,88,29.92,7.0,NNW,9.2,-,0.01,Rain,Rain,330,2011-11-26 22:00:00
4:53 PM,61.0,57.9,90,29.93,5.0,NW,10.4,-,0.06,Rain,Light Rain,320,2011-11-26 22:53:00
4:59 PM,60.8,57.2,88,29.92,2.5,NNW,9.2,-,0.01,Rain,Rain,340,2011-11-26 22:59:00
5:07 PM,60.8,57.2,88,29.93,1.8,NW,9.2,-,0.10,Rain,Rain,320,2011-11-26 23:07:00
5:10 PM,60.8,57.2,88,29.93,3.0,NNW,9.2,-,0.10,Rain,Rain,330,2011-11-26 23:10:00
5:30 PM,60.8,57.2,88,29.91,3.0,NNW,11.5,-,0.13,Rain,Light Rain,340,2011-11-26 23:30:00
5:53 PM,61.0,57.9,90,29.94,3.0,WNW,8.1,-,0.16,Rain,Light Rain,300,2011-11-26 23:53:00
6:00 PM,60.8,57.2,88,29.94,6.0,NW,6.9,-,0.02,Rain,Rain,310,2011-11-27 00:00:00
6:20 PM,60.8,59.0,94,29.96,10.0,WNW,5.8,-,0.03,,Overcast,300,2011-11-27 00:20:00
6:53 PM,61.0,59.0,93,29.98,10.0,West,5.8,-,0.03,,Overcast,280,2011-11-27 00:53:00
7:22 PM,60.8,57.2,88,30.00,10.0,WNW,8.1,-,N/A,,Overcast,300,2011-11-27 01:22:00
7:48 PM,60.8,55.4,82,30.00,10.0,NW,12.7,24.2,N/A,,Overcast,310,2011-11-27 01:48:00
7:53 PM,60.1,55.0,83,30.00,10.0,NW,18.4,24.2,N/A,,Overcast,320,2011-11-27 01:53:00
8:53 PM,57.0,50.0,77,30.04,10.0,NW,24.2,34.5,N/A,,Overcast,310,2011-11-27 02:53:00
9:24 PM,55.4,46.4,72,30.05,10.0,NW,18.4,29.9,0.00,Rain,Light Rain,310,2011-11-27 03:24:00
9:53 PM,53.6,46.4,77,30.09,10.0,NW,13.8,21.9,N/A,Rain,Light Rain,310,2011-11-27 03:53:00
10:40 PM,53.6,46.4,77,30.06,10.0,NW,13.8,25.3,0.00,,Overcast,320,2011-11-27 04:40:00
10:53 PM,54.0,46.9,77,30.06,10.0,NW,13.8,23.0,0.00,,Overcast,310,2011-11-27 04:53:00
11:53 PM,53.1,45.0,74,30.09,10.0,NW,16.1,-,N/A,,Overcast,310,2011-11-27 05:53:00